Regional Weather Roundup
Issued by NWS Austin/San Antonio, TX

Home | Current Version | Previous Version | Text Only | Print | Product List | Glossary On
Versions: 1 2 3 4 5 6 7 8 9 10 11 12 13 14 15 16 17 18 19 20 21 22 23 24 25 26 27 28 29 30 31 32 33 34 35 36 37 38 39 40 41 42 43 44 45 46 47 48 49 50
000
ASUS44 KEWX 220301
RWREWX
SOUTH TEXAS REGIONAL WEATHER ROUNDUP
NATIONAL WEATHER SERVICE AUSTIN/SAN ANTONIO TX
900 PM CST SUN JAN 21 2018

NOTE: "FAIR" INDICATED FEW OR NO CLOUDS BELOW 12,000 FEET WITH NO
SIGNIFICANT WEATHER AND/OR OBSTRUCTIONS TO VISIBILITY.

* - THESE STATIONS ARE NOT NWS OR FAA STATIONS...AND ARE NOT SUBJECT
    TO NWS AND FAA QUALITY CONTROL.

TXZ171-172-183>190-220400-
TEXAS HILL COUNTRY AND EDWARDS PLATEAU

CITY           SKY/WX    TMP DP  RH WIND       PRES   REMARKS
JUNCTION       CLEAR     58  33  39 W8        29.92R
*LLANO         CLEAR     52  48  87 NW3       29.90R
BURNET         FOG       56  56 100 CALM      29.89  VSB 3/4
*HORSESHOE BAY CLEAR     61  57  87 S5        29.87R
*KERRVILLE     CLOUDY    51  48  90 CALM      29.91R FOG
*FREDERICKSBRG CLEAR     51  48  90 CALM      29.90R
*ROCKSPRINGS     N/A     54  54 100 CALM      30.00R
*BOERNE STAGE    N/A     52  52 100 CALM      29.91R VSB 3/4
*CASTROVILLE   CLEAR     55  55  99 CALM      29.91R
HONDO          CLOUDY    55  51  86 W6        29.90R
*UVALDE        FOG       53  52  97 CALM      29.91R VSB 3/4
DEL RIO        CLEAR     54  50  86 N5        29.91R
LAUGHLIN AFB   PTCLDY    51  49  92 NW6       29.91R
CARRIZO SPRGS  PTCLDY    54  52  94 CALM      29.89R
*EAGLE PASS    CLEAR     57  52  82 W6        29.91R
*FAITH RANCH   CLEAR     55  54  94 NE5       29.89S
$$

TXZ173-191>194-202-209-217>225-228-220400-
CENTRAL AND SOUTH CENTRAL TEXAS

CITY           SKY/WX    TMP DP  RH WIND       PRES   REMARKS
GEORGETOWN     PTCLDY    63  62  97 S8        29.89R
AUSTIN/BERGSTM PTCLDY    60  60 100 S7        29.87R
AUSTIN/MABRY   MOCLDY    64  62  93 S3        29.88R
*AUSTIN/EXEC   CLEAR     63  63 100 S6        29.88R FOG
*LAGO VISTA    PTCLDY    63  63  99 S3        29.89R FOG
SAN MARCOS     MOCLDY    62  61  96 CALM      29.89R
NEW BRAUNFELS  FOG       59  59 100 W5        29.87S VSB 1/4
RANDOLPH AFB   FOG       60  60  98 CALM      29.89R VSB 3/8
PT SAN ANTONIO CLEAR     55  54  94 CALM      29.87R
SAN ANTONIO    MOCLDY    57  54  89 CALM      29.89R
STINSON FIELD  CLOUDY    58  57  97 CALM      29.87R FOG
*LA GRANGE     CLOUDY    69  66  89 S10       29.87R
*GIDDINGS      CLOUDY    66  63  89 S8        29.88S
*GONZALES      CLOUDY    67  65  94 S8        29.88R
$$

TXZ163>164-176>182-195>201-210>213-226-227-235-220400-
SOUTHEAST TEXAS

CITY           SKY/WX    TMP DP  RH WIND       PRES   REMARKS
COLLEGE STN    CLOUDY    68  65  90 S12       29.87R
*BRYAN         LGT RAIN  67  67 100 S9        29.89R
*CALDWELL      CLOUDY    67  64  89 S15G22    29.88R
*CROCKETT      CLOUDY    66  63  88 S8        29.88S
*BRENHAM       CLOUDY    70  66  87 S10G20    29.90R
HUNTSVILLE     MOCLDY    68  64  87 S13G20    29.87R
CONROE         LGT RAIN  66  66 100 SE15      29.89S FOG
HOUSTON BUSH   CLOUDY    68  67  96 S13       29.91R
HOUSTON HOBBY  CLOUDY    68  68 100 S13       29.91R
*HOUSTON SW AP CLOUDY    65  65  97 S6        29.92R
PEARLAND       CLOUDY    67  67 100 S9        29.93R
HOUSTON HOOKS  LGT RAIN  69  67  93 S13G23    29.89F
ELLINGTON FLD  CLOUDY    68  68 100 SE12      29.94R
SUGAR LAND     HVY RAIN  69  66  90 S7        29.90S FOG
*HOUSTON EXEC  FAIR      68  68 100 S13       29.89F
*CLEVELAND MUN CLOUDY    68  64  88 S17G23    29.92S
*WHARTON       MOCLDY    67  64  91 SE12      29.90F
*COLUMBUS      CLOUDY    67  65  94 S8        29.90R
*EAGLE LAKE    CLOUDY    68  67  99 S6        29.89R
$$

TXZ214>216-236>238-220400-
THE UPPER TEXAS COAST

CITY           SKY/WX    TMP DP  RH WIND       PRES   REMARKS
*ORANGE        CLOUDY    64  64 100 SE12G20   29.97F FOG
PORT ARTHUR    CLOUDY    64  62  93 SE16G23   29.93F
GALVESTON      FOG       65  64  97 SE24G30   29.88F VSB 3/4
ANGLETON       CLOUDY    70  66  87 S14       29.91R
*BAY CITY      DRIZZLE   69  68  97 S12G17    29.90R
PALACIOS       CLOUDY    65  65 100 S9        29.90R FOG
$$

TXZ229>234-239>247-220400-
TEXAS COASTAL BEND AND RIO GRANDE PLAINS

CITY           SKY/WX    TMP DP  RH WIND       PRES   REMARKS
VICTORIA       CLOUDY    66  64  93 S12       29.89R
*BEEVILLE      CLOUDY    66  64  90 S6        29.89R
ROCKPORT       CLOUDY    66  65  96 S8        29.89R FOG
*PORT ARANSAS  NOT AVBL
*PORT LAVACA   NOT AVBL
*INGLESIDE     CLOUDY    67  65  91 S9        29.89R
CORPUS CHRISTI CLOUDY    67  65  93 S13       29.88R
CORPUS NAS     CLOUDY    67  65  93 S12       29.89R
*ROBSTOWN      CLOUDY    67  64  89 S10       29.89R
ALICE          MOCLDY    68  63  84 S7        29.87R
KINGSVILLE NAS CLOUDY    66  63  90 SE7       29.87R
COTULLA        PTCLDY    58  57  97 NE3       29.89R
LAREDO         PTCLDY    60  57  89 N3        29.90R
$$

TXZ248>255-220400-
DEEP SOUTH TEXAS

CITY           SKY/WX    TMP DP  RH WIND       PRES   REMARKS
BROWNSVILLE    FAIR      70  68  93 S12       29.90R
PORT ISABEL    FAIR      70  67  90 S12       29.88R
*SOUTH PADRE   NOT AVBL
HARLINGEN      CLOUDY    70  67  90 S16       29.88R
*HEBBRONVILLE  CLOUDY    65  60  81 CALM      29.89R
MCALLEN        CLOUDY    71  66  84 SE13      29.88R
*WESLACO       CLOUDY    69  65  86 S13       29.88R
FALFURRIAS     MOCLDY    71  64  79 S9        29.87R
EDINBURG       FAIR      72  65  80 S9        29.87S
*ZAPATA        FAIR      62  57  86 E5        29.89R
$$

TXZ213>215-236>238-242>244-246-247-251-254-255-220400-
CMAN STATIONS

STATION/POSITION TIME  TEMP    WIND        PRES    WAVE
                       AIR SEA DIR/SP/G            HT/PER
                 (UTC) (F)     (DEG/KT/KT) (MB)    (FT/S)
SABINE PASS      0230   55 52  130/ 13/ 14 1015.9
SEA RIM ST PARK  0200   54     110/ 11/ 14 1014.8
NORTH JETTY/GLS  0230      49  130/ 18/ 19 1012.5
EAGLE POINT      0230   55 49  160/ 13/ 14 1012.2
MORGANS POINT    0230   56 50  220/  4/  6 1013.1
PORT O`CONNOR    0230   59 55  170/  6/  7 1012.0
MALAQUITE BEACH  0230   60 54  140/ 12/ 12 1011.5
BAFFIN BAY       0230   61 57  150/ 10/ 13 1012.0
PORT ISABEL      0230   68 56  170/  8/ 10 1012.1
$$




USA.gov is the U.S. government's official web portal to all federal, state and local government web resources and services.